Temp
102 93 86 92 94 94 92 90 86 81 95 91 88 89 91 92 92 90 91 93 94 95 99 97 97 97 94 90 88 88 87 86 87 87 86 87 86 86 87 88 88 87 86 87
95 89 96 96 96 93 92 88 86 90 93 90 89 84 89 92 91 93 93 93 95 96 96 96 96 95 92 89 87 87 86 85 86 88 88 90 89 89 87 87 87 86 86 85
90 91 97 94 93 90 91 85 87 86 92 86 77 71 71 90 91 93 95 95 95 96 96 96 95 93 93 88 87 86 86 85 84 88 88 85 85 84 83 85 85 85 84 85
93 99 93 92 90 93 84 93 91 89 86 76 85 66 73 72 86 90 95 96 97 96 97 97 96 95 93 92 90 88 86 85 84 85 85 81 82 82 84 84 87 86 84 84
89 93 91 89 91 94 87 94 90 89 86 84 62 67 70 61 82 87 92 94 95 97 97 97 99 98 97 94 92 90 86 84 85 83 82 83 79 85 82 82 84 82 83 83
93 101 95 94 94 94 95 91 84 77 72 69 74 75 65 60 82 88 92 94 95 99 100 100 101 100 98 97 94 91 87 84 84 83 81 80 80 80 79 81 82 82 83 83
91 92 98 95 91 94 91 85 65 57 59 57 77 76 64 72 90 92 91 95 97 99 101 100 99 99 98 97 93 92 89 84 84 83 82 81 79 78 76 77 81 81 79 83
82 79 91 95 91 87 88 85 75 63 67 72 76 54 75 90 93 93 96 96 97 98 100 99 97 96 97 93 92 92 90 86 86 84 82 82 81 81 80 78 82 79 81 76
82 82 94 93 95 92 86 81 90 77 79 75 67 70 86 89 91 92 93 94 94 95 96 97 98 95 94 93 91 91 90 89 87 85 82 81 78 78 80 81 81 82 82 83
87 77 91 92 95 95 89 93 78 75 55 62 73 59 53 61 86 90 91 91 92 94 96 97 97 94 94 95 95 92 92 90 88 82 79 77 78 78 79 79 79 79 78 77
91 83 84 90 87 85 87 81 79 82 78 60 57 68 64 68 88 89 91 92 93 95 97 97 97 96 95 95 95 91 90 89 85 80 81 81 81 79 79 78 78 78 74 78
92 84 78 83 92 94 91 85 84 75 67 58 52 69 86 87 90 91 91 93 94 96 96 97 97 95 93 92 91 91 88 87 85 85 85 83 82 82 79 78 78 80 77 81
89 81 74 78 86 87 84 88 86 83 80 73 72 73 90 91 90 92 91 93 94 93 93 95 95 93 93 90 88 88 86 84 85 85 86 84 83 82 79 77 78 80 79 79
81 83 78 74 78 84 80 85 87 82 74 76 78 80 79 86 87 89 90 93 94 94 92 93 92 92 93 90 88 86 84 84 85 85 85 82 81 81 81 78 79 79 80 79
86 77 83 86 88 87 86 85 86 82 82 75 79 80 86 87 88 90 91 92 90 92 91 91 90 90 91 88 87 86 84 83 84 84 84 82 82 83 82 80 80 79 78 77
86 78 83 80 87 86 82 85 86 85 85 82 83 81 88 94 94 90 90 88 90 90 90 91 90 89 87 87 86 85 83 82 83 83 84 84 83 82 80 80 79 77 77 77
83 81 78 73 83 82 75 82 84 85 87 85 78 83 79 80 89 90 90 91 90 89 89 89 88 88 86 86 86 84 83 83 82 82 84 84 82 81 80 80 79 77 76 76
82 80 81 75 77 64 82 89 88 84 85 87 87 89 90 90 92 94 97 93 90 90 89 90 90 88 87 87 87 85 85 84 83 82 83 83 83 82 81 79 77 76 76 75
87 82 77 72 73 79 77 85 83 81 80 89 88 90 90 92 92 90 94 93 92 91 91 91 90 88 86 85 86 84 84 83 84 81 81 82 83 81 80 78 76 75 75 74
86 83 78 76 63 65 81 89 92 89 74 90 90 89 89 90 82 85 93 93 92 91 92 91 90 88 86 85 84 82 82 82 82 82 81 83 82 79 78 76 75 75 75 75
77 78 74 73 72 78 88 90 90 71 73 89 91 90 89 87 90 89 93 92 93 92 91 91 88 87 85 86 83 80 82 81 82 81 83 82 81 78 79 76 75 75 74 74
76 74 75 76 71 67 89 88 78 81 85 89 90 91 90 92 93 92 93 91 91 90 91 90 87 86 86 84 82 81 81 83 82 82 82 81 80 79 80 75 75 74 73 73
75 82 77 78 76 86 90 87 90 90 86 87 88 90 92 91 92 93 91 91 91 91 91 92 89 87 86 84 83 81 81 83 82 81 79 79 79 79 77 75 74 75 76 76
85 88 81 80 86 88 91 93 92 91 88 90 91 91 91 90 92 93 93 92 91 91 91 91 88 86 84 85 84 82 82 83 81 79 78 78 77 76 76 77 77 77 75 74
87 85 81 81 86 88 91 89 88 89 91 91 92 91 91 91 91 93 92 92 92 92 92 91 88 85 84 85 83 83 83 82 79 78 78 76 78 75 76 72 73 76 72 70
89 83 81 79 82 84 85 88 90 88 89 91 90 90 93 93 91 93 92 93 93 92 92 90 87 85 85 85 84 83 80 81 79 75 70 61 73 75 71 72 73 54 56 50
MSLP
1002.51 1002.33 1001.73 1001.71 1001.99 1002.03 1001.79 1001.38 1001.22 1003.66 1001.67 1002.43 1002.65 1003.04 1003.96 1005.19 1005.60 1005.69 1005.81 1005.85 1005.95 1006.07 1006.57 1007.89 1008.44 1008.89 1009.44 1009.96 1010.25 1010.37 1010.62 1011.10 1011.45 1011.71 1011.89 1012.02 1012.31 1012.81 1013.03 1013.03 1013.40 1013.69 1014.28 1014.22
1002.68 1001.99 1001.59 1002.35 1002.25 1002.21 1001.60 1001.27 1000.98 1001.19 1002.20 1002.94 1003.03 1004.26 1004.76 1004.84 1005.15 1005.10 1005.16 1005.53 1005.42 1005.61 1006.50 1007.49 1008.09 1008.74 1009.23 1009.91 1010.31 1010.59 1010.76 1011.24 1011.65 1011.55 1011.65 1011.53 1011.83 1012.07 1012.77 1012.63 1012.89 1013.70 1013.91 1014.14
1002.23 1002.50 1002.44 1002.60 1002.14 1001.61 1001.18 1001.74 1001.43 1001.71 1001.74 1003.45 1004.75 1006.28 1006.57 1005.14 1005.62 1005.35 1005.13 1005.35 1005.38 1005.58 1005.81 1006.68 1007.55 1008.38 1008.97 1009.65 1010.08 1010.38 1010.67 1011.13 1011.49 1011.30 1011.66 1012.23 1012.57 1012.78 1012.79 1012.59 1012.85 1013.31 1013.70 1013.74
1002.08 1001.91 1002.28 1002.47 1002.08 1001.68 1001.54 1001.76 1002.06 1001.99 1002.21 1002.62 1004.69 1006.21 1007.01 1007.08 1005.42 1005.17 1004.20 1004.35 1004.78 1005.35 1005.75 1006.26 1006.95 1007.41 1008.36 1009.05 1009.81 1010.23 1010.71 1011.15 1011.59 1011.66 1011.63 1012.06 1012.13 1012.02 1012.06 1012.19 1012.23 1012.43 1013.04 1013.50
1002.38 1001.68 1002.08 1002.01 1001.79 1002.22 1002.28 1002.37 1002.70 1002.63 1002.85 1003.35 1006.66 1008.24 1008.91 1007.49 1004.93 1004.77 1004.28 1004.55 1004.78 1005.14 1005.47 1005.79 1005.98 1006.54 1007.35 1008.41 1009.36 1010.01 1010.63 1011.08 1011.35 1011.74 1012.00 1012.03 1012.57 1011.99 1012.55 1012.48 1012.15 1012.55 1012.72 1013.23
1002.76 1002.25 1002.73 1002.52 1002.39 1002.72 1002.84 1002.68 1003.73 1004.69 1005.57 1004.05 1005.65 1006.43 1007.97 1006.82 1004.47 1004.49 1004.44 1004.51 1004.68 1004.57 1004.50 1004.93 1005.37 1005.92 1006.61 1007.35 1008.39 1009.30 1010.13 1010.80 1011.29 1011.67 1012.14 1012.31 1012.32 1012.44 1012.69 1012.37 1012.19 1012.36 1012.30 1012.64
1002.25 1001.98 1001.84 1002.84 1002.21 1002.29 1002.51 1002.39 1003.76 1005.97 1006.08 1006.09 1005.88 1005.97 1007.51 1005.77 1004.20 1004.05 1004.10 1004.14 1004.33 1004.32 1004.32 1004.87 1005.58 1006.15 1006.55 1006.99 1007.78 1008.70 1009.47 1010.41 1011.11 1011.56 1011.97 1012.26 1012.60 1012.72 1012.99 1012.71 1012.15 1011.87 1011.99 1012.14
1001.11 1000.76 1001.63 1002.43 1002.35 1002.15 1002.25 1002.59 1002.83 1002.98 1003.44 1004.05 1005.77 1006.62 1004.62 1003.90 1004.49 1004.57 1004.07 1004.04 1004.47 1004.60 1005.04 1005.53 1006.34 1006.94 1007.16 1007.88 1008.33 1008.50 1009.03 1010.05 1010.62 1011.21 1011.61 1011.79 1012.12 1012.33 1012.47 1012.30 1011.91 1011.69 1011.62 1011.72
1001.65 1001.54 1002.14 1002.67 1002.65 1002.89 1002.15 1002.52 1002.60 1003.64 1004.14 1004.25 1006.35 1006.13 1003.45 1003.70 1004.02 1004.33 1004.07 1004.30 1004.77 1005.19 1005.58 1005.86 1006.21 1007.41 1007.61 1007.93 1008.57 1008.73 1008.93 1009.30 1010.05 1010.51 1011.01 1011.29 1011.67 1012.10 1011.91 1011.56 1011.84 1011.92 1011.75 1011.59
1002.70 1002.48 1002.11 1002.77 1003.03 1002.63 1002.75 1002.65 1002.80 1004.06 1005.23 1004.52 1004.41 1006.93 1008.88 1006.91 1003.41 1003.83 1004.16 1004.54 1004.98 1005.34 1005.45 1005.96 1006.41 1007.27 1007.77 1007.90 1007.92 1008.73 1008.91 1009.00 1009.71 1010.42 1010.98 1011.23 1011.34 1011.43 1011.55 1011.58 1011.70 1011.73 1011.69 1011.86
1003.53 1003.68 1002.93 1002.74 1002.25 1001.78 1002.05 1002.41 1004.29 1003.36 1004.61 1006.87 1007.03 1006.67 1006.87 1005.30 1003.59 1003.71 1004.01 1004.53 1004.89 1005.09 1005.52 1006.00 1006.36 1007.28 1007.91 1008.19 1008.35 1008.85 1009.18 1009.11 1009.88 1010.85 1010.92 1010.78 1010.75 1010.95 1011.19 1011.41 1011.61 1011.71 1011.93 1011.87
1003.69 1004.09 1003.33 1002.29 1002.19 1002.52 1002.58 1002.76 1003.07 1003.54 1004.69 1007.33 1006.77 1005.45 1005.23 1003.53 1004.37 1004.07 1004.00 1004.50 1005.21 1005.48 1006.08 1006.20 1006.57 1007.33 1007.82 1008.53 1008.97 1008.90 1009.44 1009.60 1010.15 1010.17 1010.21 1010.46 1010.68 1010.57 1010.61 1011.07 1011.30 1011.31 1011.67 1011.30
1004.31 1004.23 1003.57 1002.60 1002.15 1003.40 1002.99 1002.43 1003.16 1003.86 1004.50 1004.23 1003.95 1003.77 1004.06 1003.80 1003.93 1004.02 1003.99 1004.51 1004.95 1005.71 1006.31 1006.51 1006.96 1007.38 1007.81 1008.66 1009.24 1009.47 1009.97 1010.34 1010.33 1010.33 1009.97 1009.97 1010.15 1010.13 1010.69 1010.91 1010.89 1011.00 1011.18 1011.27
1005.41 1004.47 1003.83 1002.70 1002.24 1002.58 1002.63 1002.21 1002.63 1003.27 1003.90 1003.29 1002.74 1002.51 1003.21 1003.38 1003.49 1003.85 1004.32 1004.78 1005.13 1005.71 1006.55 1006.89 1007.31 1007.60 1008.05 1008.80 1009.34 1009.88 1010.50 1010.57 1010.44 1010.31 1010.21 1010.48 1010.49 1010.36 1010.25 1010.59 1010.55 1010.63 1010.81 1010.69
1005.51 1004.79 1003.76 1003.00 1002.51 1002.55 1002.46 1002.19 1002.17 1002.45 1002.94 1003.06 1002.65 1002.31 1002.56 1002.73 1003.36 1003.73 1004.12 1004.96 1005.64 1005.80 1006.49 1007.01 1007.51 1008.04 1008.39 1009.05 1009.51 1010.02 1010.58 1010.70 1010.67 1010.45 1010.27 1010.32 1010.45 1010.28 1010.17 1010.26 1010.29 1010.62 1010.72 1010.93
1005.41 1004.82 1004.07 1003.42 1002.86 1002.44 1002.54 1002.26 1002.23 1002.24 1002.29 1002.43 1002.24 1002.56 1003.26 1002.32 1003.25 1004.01 1004.27 1005.20 1005.36 1005.95 1006.66 1007.22 1007.75 1008.37 1008.94 1009.42 1009.77 1010.18 1010.73 1010.87 1010.85 1010.58 1010.26 1010.19 1010.56 1010.59 1010.60 1010.47 1010.51 1010.76 1010.71 1010.91
1004.95 1004.55 1004.03 1003.39 1002.86 1002.71 1002.35 1002.10 1002.02 1001.86 1002.19 1002.15 1001.87 1002.30 1002.60 1004.05 1003.71 1003.85 1003.91 1004.78 1005.59 1006.35 1006.89 1007.41 1007.90 1008.51 1009.27 1009.75 1009.98 1010.29 1010.61 1010.86 1010.80 1010.67 1010.39 1010.44 1010.62 1010.78 1010.84 1010.78 1010.83 1010.96 1010.87 1010.99
1004.65 1004.68 1004.34 1003.55 1003.43 1003.06 1001.64 1002.07 1002.40 1002.53 1002.73 1002.67 1002.22 1001.87 1002.32 1002.85 1003.28 1003.28 1003.44 1004.47 1005.63 1006.40 1007.04 1007.53 1007.97 1008.77 1009.36 1009.75 1010.01 1010.42 1010.59 1010.56 1010.59 1010.57 1010.56 1010.53 1010.56 1010.70 1010.89 1011.07 1011.23 1011.23 1011.15 1010.98
1004.77 1004.61 1004.16 1003.68 1002.87 1002.17 1002.31 1001.09 1002.24 1002.43 1002.59 1002.29 1001.80 1001.91 1002.25 1002.48 1002.94 1003.39 1003.97 1004.94 1005.73 1006.49 1007.23 1007.77 1008.37 1009.00 1009.65 1009.92 1010.22 1010.49 1010.38 1010.45 1010.31 1010.61 1010.85 1010.69 1010.60 1010.74 1010.86 1010.95 1011.15 1011.23 1011.16 1010.97
1004.60 1004.95 1004.85 1003.62 1003.38 1001.27 1001.78 1002.02 1002.84 1003.02 1002.53 1001.82 1001.86 1002.27 1002.55 1002.95 1003.20 1003.06 1004.11 1005.14 1005.76 1006.56 1007.14 1007.66 1008.13 1008.95 1009.51 1009.81 1010.32 1010.40 1010.26 1010.24 1009.97 1010.59 1010.77 1010.62 1010.75 1010.91 1010.91 1011.08 1011.10 1011.07 1011.01 1010.64
1003.54 1004.22 1003.81 1003.23 1002.79 1002.37 1002.10 1002.79 1003.38 1003.60 1003.97 1003.05 1002.54 1002.62 1002.89 1003.09 1003.37 1004.39 1004.67 1005.14 1005.70 1006.37 1006.99 1007.53 1008.23 1008.65 1009.24 1009.65 1010.15 1010.27 1009.96 1009.83 1010.07 1010.62 1010.51 1010.46 1010.68 1011.02 1010.75 1011.01 1011.16 1011.02 1010.79 1010.75
1002.86 1002.83 1002.92 1002.77 1002.78 1002.65 1003.20 1003.37 1003.65 1004.42 1004.59 1003.94 1003.48 1003.25 1003.14 1003.35 1003.66 1004.08 1004.59 1005.09 1005.61 1006.17 1006.63 1007.26 1007.86 1008.23 1008.75 1009.41 1009.78 1009.72 1009.62 1009.81 1010.29 1010.24 1010.33 1010.41 1010.69 1010.82 1010.55 1010.89 1010.90 1010.81 1010.59 1010.23
1002.76 1002.75 1002.90 1003.07 1003.01 1003.77 1003.43 1003.84 1004.16 1004.33 1004.56 1004.44 1004.21 1004.10 1003.58 1003.44 1003.47 1003.69 1004.19 1004.71 1005.18 1005.63 1006.05 1006.39 1006.85 1007.51 1008.22 1008.90 1009.32 1009.38 1009.53 1009.70 1009.97 1010.25 1010.37 1010.55 1010.53 1010.54 1010.71 1010.72 1010.61 1010.26 1009.69 1009.43
1002.73 1003.18 1003.11 1003.39 1003.08 1002.94 1003.03 1003.49 1003.82 1004.35 1004.48 1004.42 1004.33 1004.05 1003.92 1003.53 1003.42 1003.32 1003.49 1003.87 1004.44 1004.94 1005.33 1005.85 1006.35 1006.87 1007.48 1008.21 1008.81 1009.17 1009.40 1009.61 1009.86 1010.03 1010.23 1010.51 1010.46 1010.17 1010.32 1010.32 1009.86 1009.76 1009.69 1009.85
1002.42 1003.21 1003.28 1003.18 1003.35 1003.31 1003.17 1003.83 1004.61 1004.85 1004.59 1004.20 1003.94 1003.84 1003.67 1003.55 1003.31 1003.27 1003.22 1003.41 1003.72 1004.24 1004.55 1004.98 1005.63 1006.24 1006.84 1007.46 1007.97 1008.28 1008.48 1008.80 1009.32 1009.81 1010.01 1010.19 1009.94 1010.23 1009.89 1009.85 1009.81 1009.88 1010.44 1010.85
1002.80 1002.87 1003.04 1002.75 1003.47 1004.07 1003.79 1004.22 1004.72 1004.57 1004.37 1004.17 1004.01 1003.71 1003.42 1003.22 1003.17 1003.01 1002.93 1002.95 1003.08 1003.30 1003.79 1004.33 1005.10 1005.96 1006.39 1006.79 1007.26 1007.62 1008.13 1008.37 1008.49 1009.02 1009.77 1010.95 1009.72 1010.04 1009.77 1009.65 1009.65 1010.16 1010.15 1010.53
Wind_Speed
17 11 7 11 9 11 11 12 12 15 9 9 8 7 8 13 9 7 8 8 8 4 8 7 3 2 5 5 5 8 10 11 10 10 10 8 7 6 6 7 7 8 8 8
9 13 3 5 8 10 15 17 9 3 5 7 14 15 12 7 5 7 5 8 8 7 7 7 5 2 3 5 5 7 9 11 10 8 7 6 6 5 5 7 7 8 9 9
15 7 5 8 13 16 14 8 14 16 10 18 7 3 4 11 6 6 6 4 4 1 2 10 8 5 6 6 8 9 10 11 11 9 6 3 3 2 6 6 7 8 10 10
14 12 4 11 16 15 13 10 16 20 13 9 13 7 4 9 6 7 10 10 6 4 4 2 4 8 8 6 7 9 10 9 10 9 7 7 7 6 5 5 8 8 11 10
15 11 6 12 10 12 16 15 18 18 16 16 11 11 13 30 7 7 5 7 5 3 3 3 5 4 1 5 7 7 9 9 9 9 10 7 9 6 4 6 6 5 5 8
13 15 4 15 6 9 10 13 18 17 16 6 12 14 10 6 9 9 8 9 4 2 4 2 1 2 5 9 6 6 9 9 10 9 10 9 9 8 5 7 6 7 8 8
18 18 10 3 14 9 8 15 4 5 9 5 18 12 9 22 8 8 6 9 6 6 8 11 15 12 10 14 7 5 8 8 8 8 9 10 9 9 9 10 8 8 5 6
7 11 9 7 9 11 14 10 10 18 10 7 11 6 12 12 10 6 6 6 6 9 11 11 11 11 12 10 9 5 5 6 7 7 8 9 9 7 9 10 9 5 5 6
4 8 8 2 5 4 7 9 11 12 17 13 3 4 6 12 11 7 7 8 6 7 7 7 9 10 8 6 8 7 4 2 5 5 6 8 4 8 10 7 7 8 7 6
4 9 2 8 6 12 10 11 11 5 6 14 8 14 4 26 13 8 8 7 5 3 5 8 8 9 9 11 7 8 7 7 5 7 5 3 7 8 7 7 9 10 4 6
11 7 13 4 14 7 6 4 12 6 9 14 14 3 15 28 8 7 6 5 4 4 10 8 8 9 9 11 12 10 8 6 7 3 5 5 5 5 8 6 8 8 6 11
12 6 12 16 7 6 8 11 12 10 3 9 11 5 9 6 4 7 6 5 7 7 9 9 9 8 8 10 11 9 7 9 6 5 6 4 5 7 5 5 7 7 8 10
7 7 10 15 11 16 15 9 3 6 10 14 14 4 11 8 7 6 5 7 5 4 10 7 9 8 8 9 9 9 9 7 6 5 7 5 5 7 4 6 7 8 9 8
4 8 9 14 6 9 12 8 10 5 8 14 15 6 9 11 9 6 2 2 7 6 8 7 7 9 9 9 9 8 7 7 7 6 9 8 7 8 6 4 5 6 6 7
5 10 14 13 13 10 12 15 11 9 11 14 16 19 16 8 8 7 5 2 1 1 4 7 7 7 10 10 8 7 6 6 6 6 5 4 6 7 9 7 5 4 4 3
6 8 9 13 16 11 14 14 13 14 14 15 13 17 14 4 4 6 6 3 3 6 5 6 7 8 9 9 8 6 6 6 7 7 7 7 7 7 7 9 7 5 3 1
6 9 7 13 11 12 10 11 15 10 13 16 13 14 13 22 7 8 4 2 1 3 4 5 4 6 6 6 4 5 5 5 5 6 7 6 5 6 7 7 7 8 6 2
7 8 10 11 8 15 3 6 6 8 12 15 16 12 7 4 7 5 4 3 3 1 3 5 6 5 5 5 5 6 6 5 6 5 6 5 5 5 5 6 7 7 6 5
8 8 11 11 12 11 5 2 4 9 12 14 9 8 4 4 2 7 5 6 2 1 1 1 4 4 3 4 5 5 6 5 6 5 5 5 6 6 6 6 6 6 6 6
9 9 10 13 6 12 8 8 7 5 14 8 3 5 4 5 9 5 11 7 5 4 3 1 2 3 1 3 2 5 5 6 3 2 5 5 5 5 6 6 7 6 7 8
11 11 15 13 11 10 6 8 2 11 5 12 5 3 4 8 6 5 4 4 3 5 5 4 3 3 1 2 2 5 5 6 3 4 7 5 4 5 5 4 6 6 6 7
6 12 11 11 13 15 9 2 4 6 7 12 10 8 7 7 8 5 6 4 6 6 7 8 6 6 4 5 5 7 5 4 4 6 6 5 4 5 5 4 5 6 5 8
12 11 9 10 6 2 2 5 8 9 9 11 9 11 11 9 9 9 9 9 8 8 8 8 7 7 6 6 6 6 5 4 6 6 6 5 5 4 4 5 5 8 6 6
11 7 7 10 13 12 8 8 6 7 9 11 11 10 9 12 12 12 10 9 9 11 10 10 9 9 8 7 6 5 5 5 6 7 6 6 6 3 5 6 6 6 6 7
6 3 7 10 13 15 17 7 2 9 10 10 9 10 13 13 13 13 12 11 11 11 12 10 10 9 9 9 8 6 6 6 4 7 5 7 8 5 5 7 2 5 4 1
12 14 12 12 7 3 10 9 9 11 13 9 9 11 12 12 13 15 14 13 12 13 12 11 11 10 10 10 9 7 4 4 4 2 4 4 5 5 5 1 4 4 5 12
Wind_Direction
227 284 254 19 335 328 306 305 21 329 96 296 63 310 100 167 173 178 182 171 202 220 132 152 159 110 100 109 149 170 183 184 187 192 199 203 197 202 218 224 219 212 226 224
251 250 62 329 299 289 287 302 333 235 353 292 355 43 13 159 153 169 187 177 194 191 174 187 181 144 122 143 166 183 190 186 203 204 217 212 204 188 228 216 199 220 225 234
266 244 82 278 288 284 297 348 317 318 312 72 259 208 271 119 182 110 125 196 159 238 233 185 198 217 169 175 187 187 196 188 206 226 200 166 168 212 226 229 206 208 227 228
259 275 356 284 281 295 294 349 313 300 289 301 229 121 177 271 144 231 175 162 133 122 181 189 241 206 199 214 193 195 196 193 206 219 197 205 225 225 223 207 216 204 197 222
263 253 266 267 300 337 303 323 301 309 291 284 23 298 59 323 142 132 114 118 121 169 101 349 345 12 268 164 203 204 199 197 218 204 254 201 245 241 226 263 242 209 211 221
265 286 252 282 337 306 307 278 42 353 351 305 206 250 137 173 134 117 109 92 117 81 142 1 107 164 202 177 192 205 200 210 212 212 215 246 263 259 245 250 244 231 213 191
238 238 224 256 258 200 254 271 123 258 255 166 281 338 158 222 105 102 119 112 93 8 43 24 24 5 10 10 152 232 207 213 218 225 233 227 238 257 248 261 233 255 223 195
255 235 174 185 274 336 306 339 305 311 332 349 159 206 231 129 104 141 146 108 53 29 31 30 44 14 19 11 14 331 234 223 219 228 245 239 233 233 234 233 257 230 242 224
259 215 131 253 277 283 339 281 339 310 316 281 99 185 60 130 120 173 111 83 64 59 38 24 64 31 5 11 29 354 329 296 227 249 253 244 229 229 267 280 225 251 261 276
292 294 254 117 262 231 261 310 284 93 227 271 177 96 163 302 152 133 129 110 87 34 52 29 40 56 10 7 43 31 359 20 7 25 355 294 235 226 249 258 233 246 278 272
240 253 284 173 226 286 247 245 262 292 320 12 348 334 195 211 184 124 116 98 95 21 30 22 43 30 27 15 11 51 2 18 61 23 282 267 268 248 235 238 253 247 256 255
225 242 258 262 77 279 281 299 328 306 30 167 192 259 125 343 159 149 123 124 51 5 31 21 17 29 42 16 9 20 8 31 18 342 2 332 315 298 274 260 251 233 230 240
140 219 249 241 222 1 287 273 271 296 290 278 294 42 194 162 154 168 137 108 170 5 55 20 354 22 21 22 18 11 31 23 359 338 330 27 319 310 315 278 247 224 235 257
332 274 262 295 341 218 229 251 241 281 289 310 312 322 126 197 170 150 174 121 45 0 47 16 347 11 2 25 13 24 26 1 4 341 14 16 355 340 342 331 269 232 244 251
230 253 257 252 282 310 289 293 298 243 259 287 310 306 311 161 172 180 141 111 34 12 30 8 9 7 358 15 359 40 15 17 345 355 350 8 8 2 5 8 345 331 346 340
199 266 278 291 288 241 271 285 285 276 276 275 298 288 2 147 196 147 190 126 276 39 13 360 11 12 11 2 1 28 5 9 346 347 338 5 4 25 20 11 57 41 24 44
219 273 257 270 299 324 272 280 284 310 313 317 290 289 154 186 235 181 188 177 18 12 357 2 3 24 25 344 357 357 5 344 341 345 347 20 18 28 19 29 30 18 21 347
242 264 281 279 247 244 241 229 306 317 301 286 283 276 312 275 184 224 133 43 52 350 352 4 17 24 25 360 358 339 347 315 338 344 351 3 0 17 21 17 15 3 353 342
245 260 274 266 263 265 308 291 350 331 304 310 258 286 271 230 351 237 208 138 145 78 347 349 49 46 27 334 5 328 310 350 289 28 333 319 2 355 354 3 347 332 328 325
225 251 268 268 328 284 327 65 30 330 270 343 147 257 238 195 253 30 125 156 160 173 223 293 89 74 179 299 346 301 325 281 327 321 294 322 349 341 336 341 326 318 314 292
203 226 239 239 263 287 41 45 31 253 31 333 329 291 236 233 278 122 160 157 169 202 210 195 207 249 9 277 266 271 277 280 34 269 269 291 326 323 288 330 320 315 308 329
228 200 232 247 269 262 40 335 295 18 325 328 326 325 287 247 255 185 229 208 207 229 221 194 236 221 193 212 229 255 277 287 255 250 276 293 304 301 348 325 312 315 290 277
235 271 308 306 347 317 308 295 292 295 291 302 312 310 295 272 258 255 222 232 240 242 240 239 231 219 205 217 236 268 284 275 272 267 272 280 291 300 320 290 280 275 255 287
230 202 240 272 275 285 330 311 350 336 320 303 274 273 282 273 270 259 258 236 240 241 236 236 231 229 221 210 221 240 281 287 283 274 271 271 278 266 267 305 297 318 340 2
299 101 264 267 270 279 261 81 13 327 307 310 287 260 270 276 264 268 271 260 249 252 248 229 234 226 224 209 201 207 222 228 254 274 280 258 258 214 283 249 322 305 86 100
258 259 264 270 2 292 296 7 317 310 302 299 310 306 293 277 270 269 268 273 266 256 245 240 218 230 223 220 206 212 188 210 216 271 341 356 349 309 296 23 267 100 147 186